User: anonymous   Login
Location: Caltech
(34.1382°N, 118.1253°W)
Time: 11:33:59
(UTC-07:00)
Language:

HO-68 - Orbit

View from above orbital plane
View from above orbital plane
View from above satellite
View from above satellite

Ground track
Ground track

The orbit data is extracted from the following two-line orbital elements,

1 36122U 09072B   17231.19639497 -.00000030  00000-0  31288-4 0  9994
2 36122 100.0976 254.7165 0008240  90.1169 270.0889 13.16340634368922
Epoch (UTC): 19 August 2017 04:42:48
Eccentricity: 0.0008240
inclination: 100.0976°
perigee height: 1192 km
apogee height: 1205 km
right ascension of ascending node: 254.7165°
argument of perigee: 90.1169°
revolutions per day: 13.16340634
mean anomaly at epoch: 270.0889°
orbit number at epoch: 36892

The dashed part of the orbit path shows where the satellite is in the earth's shadow,  

DLR